Weather History for Pau, France

Change the Weather History Date:

Saturday, March 16, 2013

  Actual Average Record
Temperature  
Mean Temperature 46 °F -  
Max Temperature 57 °F 60 °F 78 °F (2005)
Min Temperature 35 °F 42 °F 35 °F (2006)
Degree Days  
Heating Degree Days 19    
Moisture  
Dew Point 33 °F    
Average Humidity 62    
Maximum Humidity 81    
Minimum Humidity 36    
Precipitation  
Precipitation 0.00 in - - ()
Sea Level Pressure  
Sea Level Pressure 29.77 in    
Wind  
Wind Speed 5 mph ()    
Max Wind Speed 10 mph    
Max Gust Speed -    
Visibility 6.2 miles    
Events Rain    
Averages and records for this station are not official NWS values.
T = Trace of Precipitation, MM = Missing Value Source: Averaged Metar Reports

Daily Weather History Graph

Daily Weather History Graph

Search for Another Location

Airport:

Trip Planner

Search our weather history database for the weather conditions in past years. The results will help you decide how hot, cold, wet, or windy it might be!

Date:

Astronomy

Mar. 16, 2013 Rise Set
Actual Time 7:11 AM CET 7:09 PM CET
Civil Twilight 6:43 AM CET 7:37 PM CET
Nautical Twilight 6:10 AM CET 8:10 PM CET
Astronomical Twilight 5:36 AM CET 8:44 PM CET
Moon 9:23 AM CET (3/16) No Moon Set
Length of Visible Light 12h 54m
Length of Day
11h 57m
Waxing Crescent, 21% of the Moon is Illuminated
Mar 16
Waxing Crescent
Mar 19
First Quarter
Mar 27
Full
Apr 3
Last Quarter
Apr 10
New

Hourly Weather History & Observations

Time (CET) Temp. Windchill Dew Point Humidity Pressure Visibility Wind Dir Wind Speed Gust Speed Precip Events Conditions
12:00 AM 37.4 °F 32.8 °F 30.2 °F 75% 29.98 in 6.2 mi ESE 5.8 mph - N/A   Unknown
12:30 AM 35.6 °F 31.7 °F 28.4 °F 75% 29.98 in 6.2 mi ESE 4.6 mph - N/A   Unknown
1:00 AM 37.4 °F 32.8 °F 28.4 °F 70% 29.95 in 6.2 mi SE 5.8 mph - N/A   Unknown
1:30 AM 35.6 °F 32.8 °F 28.4 °F 75% 29.95 in 6.2 mi ESE 3.5 mph - N/A   Unknown
2:00 AM 35.6 °F 30.7 °F 28.4 °F 75% 29.92 in 6.2 mi SE 5.8 mph - N/A   Unknown
2:30 AM 37.4 °F 32.1 °F 28.4 °F 70% 29.92 in 6.2 mi SE 6.9 mph - N/A   Unknown
3:00 AM 37.4 °F 30.3 °F 26.6 °F 65% 29.89 in 6.2 mi SE 10.4 mph - N/A   Unknown
3:30 AM 37.4 °F 32.8 °F 28.4 °F 70% 29.89 in 6.2 mi ESE 5.8 mph - N/A   Unknown
4:00 AM 37.4 °F 31.4 °F 26.6 °F 65% 29.86 in 6.2 mi SE 8.1 mph - N/A   Unknown
4:30 AM 35.6 °F 30.7 °F 26.6 °F 70% 29.86 in 6.2 mi ESE 5.8 mph - N/A   Unknown
5:00 AM 35.6 °F 30.7 °F 26.6 °F 70% 29.83 in 6.2 mi SE 5.8 mph - N/A   Unknown
5:30 AM 35.6 °F 31.7 °F 26.6 °F 70% 29.83 in 6.2 mi SE 4.6 mph - N/A   Unknown
6:00 AM 35.6 °F 28.0 °F 24.8 °F 65% 29.83 in 6.2 mi SE 10.4 mph - N/A   Unknown
6:30 AM 35.6 °F 29.9 °F 26.6 °F 70% 29.83 in 6.2 mi ESE 6.9 mph - N/A   Unknown
7:00 AM 35.6 °F 29.9 °F 24.8 °F 65% 29.80 in - SE 6.9 mph - N/A   Clear
7:30 AM 37.4 °F 32.8 °F 24.8 °F 60% 29.80 in 6.2 mi SSE 5.8 mph - N/A   Mostly Cloudy
8:00 AM 35.6 °F 31.7 °F 24.8 °F 65% 29.80 in 6.2 mi SE 4.6 mph - N/A   Mostly Cloudy
8:30 AM 39.2 °F 35.9 °F 26.6 °F 61% 29.80 in 6.2 mi SSE 4.6 mph - N/A   Mostly Cloudy
9:00 AM 44.6 °F 40.7 °F 26.6 °F 49% 29.80 in 6.2 mi SSE 6.9 mph - N/A   Mostly Cloudy
9:30 AM 46.4 °F 42.9 °F 26.6 °F 46% 29.77 in 6.2 mi SE 6.9 mph - N/A   Mostly Cloudy
10:00 AM 50.0 °F - 26.6 °F 40% 29.77 in 6.2 mi Variable 2.3 mph - N/A   Mostly Cloudy
10:30 AM 53.6 °F - 28.4 °F 38% 29.74 in 6.2 mi SE 4.6 mph - N/A   Mostly Cloudy
11:00 AM 55.4 °F - 30.2 °F 38% 29.74 in 6.2 mi North 3.5 mph - N/A   Mostly Cloudy
11:30 AM 55.4 °F - 28.4 °F 36% 29.74 in 6.2 mi North 4.6 mph - N/A   Mostly Cloudy
12:00 PM 57.2 °F - 32.0 °F 38% 29.74 in 6.2 mi North 3.5 mph - N/A   Mostly Cloudy
12:30 PM 57.2 °F - 33.8 °F 41% 29.71 in 6.2 mi North 3.5 mph - N/A   Mostly Cloudy
1:00 PM 57.2 °F - 33.8 °F 41% 29.71 in 6.2 mi NNE 4.6 mph - N/A   Mostly Cloudy
1:30 PM 57.2 °F - 33.8 °F 41% 29.74 in 6.2 mi North 4.6 mph - N/A   Mostly Cloudy
2:00 PM 55.4 °F - 35.6 °F 47% 29.74 in 6.2 mi West 5.8 mph - N/A Rain Light Rain
2:30 PM 53.6 °F - 35.6 °F 51% 29.71 in 6.2 mi WSW 8.1 mph - N/A   Mostly Cloudy
3:00 PM 55.4 °F - 35.6 °F 47% 29.71 in 6.2 mi Variable 2.3 mph - N/A   Mostly Cloudy
3:30 PM 55.4 °F - 37.4 °F 51% 29.68 in 6.2 mi Variable 2.3 mph - N/A   Mostly Cloudy
4:00 PM 55.4 °F - 37.4 °F 51% 29.68 in 6.2 mi Calm Calm - N/A   Mostly Cloudy
4:30 PM 55.4 °F - 37.4 °F 51% 29.68 in 6.2 mi Calm Calm - N/A   Mostly Cloudy
5:00 PM 53.6 °F - 42.8 °F 67% 29.68 in 6.2 mi North 2.3 mph - N/A Rain Light Rain
5:30 PM 51.8 °F - 41.0 °F 67% 29.68 in 6.2 mi North 5.8 mph - N/A   Mostly Cloudy
6:00 PM 51.8 °F - 39.2 °F 62% 29.68 in 6.2 mi North 3.5 mph - N/A Rain Light Rain
6:30 PM 50.0 °F - 39.2 °F 66% 29.68 in 6.2 mi ENE 4.6 mph - N/A Rain Light Rain
7:00 PM 50.0 °F - 39.2 °F 66% 29.68 in 6.2 mi ENE 2.3 mph - N/A Rain Light Rain
7:30 PM 50.0 °F - 39.2 °F 66% 29.65 in 6.2 mi ESE 4.6 mph - N/A   Overcast
8:00 PM 50.0 °F - 39.2 °F 66% 29.68 in 6.2 mi Variable 2.3 mph - N/A   Overcast
8:30 PM 48.2 °F - 41.0 °F 76% 29.68 in 6.2 mi Calm Calm - N/A   Overcast
9:00 PM 46.4 °F - 41.0 °F 81% 29.68 in 6.2 mi North 2.3 mph - N/A   Overcast
9:30 PM 46.4 °F - 41.0 °F 81% 29.68 in 6.2 mi Variable 1.2 mph - N/A   Overcast
10:00 PM 46.4 °F - 41.0 °F 81% 29.68 in 6.2 mi Calm Calm - N/A   Overcast
10:30 PM 46.4 °F - 41.0 °F 81% 29.68 in 6.2 mi North 1.2 mph - N/A   Overcast
11:00 PM 46.4 °F - 41.0 °F 81% 29.68 in 6.2 mi Calm Calm - N/A   Overcast
11:30 PM 46.4 °F - 41.0 °F 81% 29.65 in 6.2 mi Variable 2.3 mph - N/A   Overcast